• en France
  • Liste des pays
  • À 7 jours
  • Température de l'eau
  • Carte satellitaire
  • Carte météo
  • Widgets météo
  • user-avatar
    Se connecter

    Météo par heure à Brodzikowo

    Ce jour, 19 Août, Dimanche

    Heure Température Précipitation Vent Pression Humidité
    00:00 +16°C° 0 mm 1 m/s 751 mmHg 90%
    01:00 +15°C° 0 mm 1 m/s 751 mmHg 89%
    02:00 +15°C° 0 mm 1 m/s 751 mmHg 88%
    03:00 +15°C° 0 mm 1 m/s 751 mmHg 87%
    04:00 +15°C° 0 mm 1 m/s 751 mmHg 86%
    05:00 +16°C° 0 mm 1 m/s 751 mmHg 84%
    06:00 +19°C° 0 mm 1 m/s 751 mmHg 81%
    07:00 +19°C° 0 mm 2 m/s 752 mmHg 78%
    08:00 +20°C° 0 mm 2 m/s 752 mmHg 72%
    09:00 +23°C° 0 mm 2 m/s 752 mmHg 66%
    10:00 +25°C° 0 mm 2 m/s 752 mmHg 60%
    11:00 +25°C° 0 mm 2 m/s 751 mmHg 58%
    12:00 +26°C° 0 mm 2 m/s 751 mmHg 55%
    13:00 +27°C° 0 mm 3 m/s 751 mmHg 51%
    14:00 +27°C° 0 mm 3 m/s 751 mmHg 52%
    15:00 +27°C° 0 mm 2 m/s 750 mmHg 53%
    16:00 +27°C° 0 mm 2 m/s 750 mmHg 54%
    17:00 +25°C° 0 mm 2 m/s 750 mmHg 59%
    18:00 +23°C° 0 mm 1 m/s 750 mmHg 64%
    19:00 +21°C° 0 mm 1 m/s 750 mmHg 70%
    20:00 +21°C° 0 mm 1 m/s 749 mmHg 72%
    21:00 +20°C° 0 mm 1 m/s 749 mmHg 74%
    22:00 +19°C° 0 mm 1 m/s 749 mmHg 77%
    23:00 +19°C° 0 mm 1 m/s 749 mmHg 78%

    Demain, 20 Août, Lundi

    Heure Température Précipitation Vent Pression Humidité
    00:00 +19°C° 0 mm 1 m/s 749 mmHg 78%
    01:00 +18°C° 0 mm 2 m/s 748 mmHg 79%
    02:00 +18°C° 0 mm 2 m/s 748 mmHg 80%
    03:00 +17°C° 0 mm 2 m/s 748 mmHg 81%
    04:00 +17°C° 0 mm 2 m/s 747 mmHg 82%
    05:00 +19°C° 0 mm 3 m/s 747 mmHg 78%
    06:00 +20°C° 0 mm 3 m/s 747 mmHg 74%
    07:00 +21°C° 0 mm 3 m/s 747 mmHg 69%
    08:00 +23°C° 0 mm 4 m/s 747 mmHg 63%
    09:00 +26°C° 0 mm 4 m/s 746 mmHg 57%
    10:00 +28°C° 0 mm 5 m/s 746 mmHg 51%
    11:00 +28°C° 0 mm 5 m/s 746 mmHg 50%
    12:00 +29°C° 0 mm 5 m/s 746 mmHg 49%
    13:00 +29°C° 0 mm 5 m/s 745 mmHg 48%
    14:00 +28°C° 0,1 mm 5 m/s 745 mmHg 53%
    15:00 +27°C° 0,1 mm 5 m/s 745 mmHg 58%
    16:00 +26°C° 0,1 mm 5 m/s 745 mmHg 62%
    17:00 +23°C° 0 mm 5 m/s 745 mmHg 68%
    18:00 +22°C° 0 mm 4 m/s 745 mmHg 74%
    19:00 +20°C° 0 mm 3 m/s 745 mmHg 80%
    20:00 +20°C° 0,1 mm 3 m/s 745 mmHg 83%
    21:00 +19°C° 0,1 mm 4 m/s 745 mmHg 86%
    22:00 +18°C° 0,1 mm 4 m/s 745 mmHg 89%
    23:00 +18°C° 0 mm 4 m/s 745 mmHg 88%

    Après-demain, 21 Août, Mardi

    Heure Température Précipitation Vent Pression Humidité
    00:00 +17°C° 0 mm 4 m/s 746 mmHg 87%
    01:00 +15°C° 0 mm 4 m/s 746 mmHg 86%
    02:00 +15°C° 0 mm 4 m/s 746 mmHg 85%
    03:00 +14°C° 0 mm 4 m/s 746 mmHg 84%
    04:00 +13°C° 0 mm 4 m/s 746 mmHg 84%
    05:00 +14°C° 0 mm 4 m/s 747 mmHg 81%
    06:00 +15°C° 0 mm 5 m/s 747 mmHg 79%
    07:00 +16°C° 0 mm 5 m/s 748 mmHg 76%
    08:00 +17°C° 0,1 mm 5 m/s 748 mmHg 72%
    09:00 +19°C° 0,1 mm 5 m/s 749 mmHg 68%
    10:00 +21°C° 0,1 mm 5 m/s 749 mmHg 63%
    11:00 +21°C° 0,1 mm 5 m/s 749 mmHg 61%
    12:00 +21°C° 0,1 mm 5 m/s 750 mmHg 59%
    13:00 +21°C° 0,1 mm 5 m/s 750 mmHg 57%
    14:00 +21°C° 0 mm 5 m/s 750 mmHg 57%
    15:00 +21°C° 0 mm 5 m/s 750 mmHg 57%
    16:00 +20°C° 0 mm 5 m/s 750 mmHg 58%
    17:00 +19°C° 0 mm 4 m/s 751 mmHg 64%
    18:00 +17°C° 0 mm 3 m/s 751 mmHg 71%
    19:00 +15°C° 0 mm 2 m/s 751 mmHg 78%
    20:00 +14°C° 0 mm 2 m/s 752 mmHg 81%
    21:00 +13°C° 0 mm 2 m/s 752 mmHg 84%
    22:00 +13°C° 0 mm 1 m/s 752 mmHg 87%
    23:00 +12°C° 0 mm 1 m/s 753 mmHg 88%

    22 Août, Mercredi

    Heure Température Précipitation Vent Pression Humidité
    00:00 +12°C° 0 mm 1 m/s 753 mmHg 89%
    01:00 +11°C° 0 mm 1 m/s 753 mmHg 90%
    02:00 +11°C° 0 mm 1 m/s 753 mmHg 91%
    03:00 +11°C° 0 mm 1 m/s 753 mmHg 91%
    04:00 +10°C° 0 mm 1 m/s 754 mmHg 91%
    05:00 +12°C° 0 mm 1 m/s 754 mmHg 86%
    06:00 +13°C° 0 mm 1 m/s 754 mmHg 81%
    07:00 +15°C° 0 mm 2 m/s 754 mmHg 75%
    08:00 +16°C° 0 mm 2 m/s 754 mmHg 68%
    09:00 +18°C° 0 mm 2 m/s 754 mmHg 60%
    10:00 +19°C° 0 mm 2 m/s 754 mmHg 52%
    11:00 +20°C° 0 mm 2 m/s 754 mmHg 49%
    12:00 +21°C° 0 mm 2 m/s 753 mmHg 45%
    13:00 +23°C° 0 mm 2 m/s 753 mmHg 41%
    14:00 +23°C° 0 mm 2 m/s 753 mmHg 42%
    15:00 +23°C° 0 mm 2 m/s 752 mmHg 42%
    16:00 +24°C° 0 mm 2 m/s 752 mmHg 42%
    17:00 +21°C° 0 mm 2 m/s 752 mmHg 48%
    18:00 +19°C° 0 mm 2 m/s 752 mmHg 54%
    19:00 +17°C° 0 mm 2 m/s 752 mmHg 59%
    20:00 +16°C° 0 mm 2 m/s 752 mmHg 62%
    21:00 +16°C° 0 mm 3 m/s 752 mmHg 64%
    22:00 +14°C° 0 mm 3 m/s 752 mmHg 66%
    23:00 +14°C° 0 mm 3 m/s 751 mmHg 68%

    23 Août, Jeudi

    Heure Température Précipitation Vent Pression Humidité
    00:00 +13°C° 0 mm 3 m/s 751 mmHg 70%
    01:00 +13°C° 0 mm 3 m/s 751 mmHg 73%
    02:00 +13°C° 0 mm 3 m/s 751 mmHg 74%
    03:00 +13°C° 0 mm 3 m/s 751 mmHg 76%
    04:00 +13°C° 0 mm 3 m/s 750 mmHg 78%
    05:00 +14°C° 0 mm 4 m/s 750 mmHg 75%
    06:00 +15°C° 0 mm 4 m/s 750 mmHg 73%
    07:00 +17°C° 0 mm 4 m/s 750 mmHg 70%
    08:00 +19°C° 0 mm 4 m/s 750 mmHg 66%
    09:00 +21°C° 0 mm 4 m/s 750 mmHg 61%
    10:00 +23°C° 0 mm 4 m/s 750 mmHg 57%
    11:00 +25°C° 0 mm 4 m/s 749 mmHg 54%
    12:00 +26°C° 0 mm 4 m/s 749 mmHg 51%
    13:00 +27°C° 0 mm 4 m/s 749 mmHg 48%
    14:00 +27°C° 0 mm 3 m/s 748 mmHg 49%
    15:00 +27°C° 0 mm 3 m/s 748 mmHg 50%
    16:00 +27°C° 0 mm 3 m/s 748 mmHg 51%
    17:00 +25°C° 0 mm 3 m/s 747 mmHg 56%
    18:00 +22°C° 0 mm 3 m/s 747 mmHg 61%
    19:00 +21°C° 0 mm 3 m/s 747 mmHg 66%
    20:00 +20°C° 0 mm 3 m/s 747 mmHg 69%
    21:00 +20°C° 0 mm 3 m/s 747 mmHg 71%
    22:00 +19°C° 0 mm 3 m/s 746 mmHg 73%
    23:00 +19°C° 0 mm 4 m/s 746 mmHg 77%

    24 Août, Vendredi

    Heure Température Précipitation Vent Pression Humidité
    00:00 +19°C° 0 mm 4 m/s 746 mmHg 80%
    01:00 +18°C° 0 mm 4 m/s 746 mmHg 83%
    02:00 +18°C° 0 mm 4 m/s 745 mmHg 86%
    03:00 +18°C° 0 mm 4 m/s 745 mmHg 88%
    04:00 +17°C° 0 mm 4 m/s 745 mmHg 91%
    05:00 +18°C° 0 mm 4 m/s 745 mmHg 87%
    06:00 +19°C° 0 mm 4 m/s 744 mmHg 84%
    07:00 +20°C° 0 mm 5 m/s 744 mmHg 81%
    08:00 +22°C° 0,1 mm 5 m/s 744 mmHg 75%
    09:00 +25°C° 0,1 mm 5 m/s 744 mmHg 69%
    10:00 +27°C° 0,1 mm 6 m/s 744 mmHg 63%
    11:00 +28°C° 0 mm 6 m/s 743 mmHg 58%
    12:00 +30°C° 0 mm 6 m/s 743 mmHg 53%
    13:00 +32°C° 0 mm 6 m/s 743 mmHg 48%
    14:00 +32°C° 0 mm 5 m/s 742 mmHg 49%
    15:00 +32°C° 0 mm 5 m/s 742 mmHg 50%
    16:00 +32°C° 0 mm 4 m/s 742 mmHg 51%
    17:00 +29°C° 0 mm 4 m/s 742 mmHg 53%
    18:00 +28°C° 0 mm 5 m/s 742 mmHg 55%
    19:00 +27°C° 0 mm 5 m/s 741 mmHg 57%
    20:00 +26°C° 0,2 mm 5 m/s 741 mmHg 60%
    21:00 +25°C° 0,2 mm 5 m/s 741 mmHg 64%
    22:00 +23°C° 0,2 mm 5 m/s 741 mmHg 67%
    23:00 +23°C° 0,3 mm 5 m/s 741 mmHg 71%
    Voir plus